Location: Spaichingen
(48.0400°N, 8.4300°E)
Time: 14:03:15
(UTC+01:00)

ISS - Visible Passes

Search period start: 16 January 2021 00:00
Search period end: 26 January 2021 00:00
Orbit: 418 x 419 km, 51.6° (Epoch: 16 January)

Date Brightness Start Highest point End Pass type
(mag) Time Alt. Az. Time Alt. Az. Time Alt. Az.
18 Jan -1.4 18:41:50 10° SSE 18:42:57 13° SE 18:42:57 13° SE visible
19 Jan -1.9 19:28:45 10° SW 19:30:25 25° SSW 19:30:25 25° SSW visible
20 Jan -2.6 18:41:21 10° SSW 18:44:17 29° SE 18:44:49 27° SE visible
20 Jan -0.3 20:17:33 10° WSW 20:17:47 12° WSW 20:17:47 12° WSW visible
21 Jan -1.9 17:54:10 10° S 17:56:39 19° SE 17:59:09 10° E visible
21 Jan -2.7 19:29:43 10° WSW 19:32:07 44° WSW 19:32:07 44° WSW visible
22 Jan -3.7 18:41:59 10° SW 18:45:19 64° SSE 18:46:24 38° E visible
22 Jan -0.4 20:18:57 10° W 20:19:21 13° W 20:19:21 13° W visible
23 Jan -3.1 17:54:21 10° SW 17:57:34 43° SSE 18:00:37 11° ENE visible
23 Jan -2.6 19:31:00 10° W 19:33:33 42° WNW 19:33:33 42° WNW visible
24 Jan -3.7 18:43:05 10° WSW 18:46:27 69° NNW 18:47:44 34° NE visible
24 Jan -0.4 20:20:18 10° WNW 20:20:40 12° WNW 20:20:40 12° WNW visible
25 Jan -3.8 17:55:14 10° WSW 17:58:36 89° S 18:01:52 11° ENE visible
25 Jan -2.4 19:32:22 10° WNW 19:34:49 36° NW 19:34:49 36° NW visible
